This demonstration page uses our WeatherBlox Daily Observations layout. Learn more.

Left ArrowRight Arrow

Hourly Observations for February 15, 2020

Temp ( °F °C ) Dew Point ( °F °C ) Humidity (%) Winds ( mph kmh ) Pressure ( in mb ) Visibility ( mi km ) Precip ( " mm )
12:53 am 00:53 Cloudy 27 -2.8 20 -6.7 75 75 SW 16 26 29.92 1013 10 16 0.00 0.00
1:53 am 01:53 Clear 24 -4.4 17 -8.3 75 75 SW 16 26 29.93 1014 10 16 0.00 0.00
2:53 am 02:53 Clear 22 -5.6 17 -8.3 82 82 SW 12 19 29.95 1014 10 16 0.00 0.00
3:53 am 03:53 Clear 23 -5 16 -8.9 74 74 SW 14 22 29.94 1014 10 16 0.00 0.00
4:53 am 04:53 Clear 23 -5 16 -8.9 74 74 SW 12 19 29.96 1015 10 16 0.00 0.00
5:53 am 05:53 Cloudy 21 -6.1 16 -8.9 81 81 Calm 29.98 1015 10 16 0.00 0.00
6:53 am 06:53 Cloudy 22 -5.6 17 -8.3 82 82 NNE 8 13 29.98 1015 10 16 0.00 0.00
7:53 am 07:53 Cloudy 19 -7.2 14 -10 81 81 E 5 7 29.98 1015 10 16 0.00 0.00
8:53 am 08:53 Cloudy 20 -6.7 16 -8.9 85 85 ENE 6 9 29.98 1015 10 16 0.00 0.00
9:53 am 09:53 Cloudy 22 -5.6 17 -8.3 82 82 E 5 7 29.97 1015 10 16 0.00 0.00
10:53 am 10:53 Cloudy 26 -3.3 19 -7.2 75 75 ENE 6 9 29.94 1014 10 16 0.00 0.00
11:53 am 11:53 Cloudy 28 -2.2 20 -6.7 72 72 E 6 9 29.93 1013 10 16 0.00 0.00
12:53 pm 12:53 Cloudy 31 -0.6 23 -5 72 72 ENE 6 9 29.89 1012 10 16 0.00 0.00
1:53 pm 13:53 Cloudy 31 -0.6 24 -4.4 76 76 E 8 13 29.86 1011 10 16 0.00 0.00
2:53 pm 14:53 Cloudy 33 0.6 26 -3.3 75 75 ENE 8 13 29.86 1011 10 16 0.00 0.00
3:53 pm 15:53 Cloudy 33 0.6 27 -2.8 78 78 E 7 11 29.86 1011 10 16 0.00 0.00
4:53 pm 16:53 Mostly Sunny 34 1.1 27 -2.8 76 76 E 5 7 29.85 1011 10 16 0.00 0.00
5:53 pm 17:53 Clear 31 -0.6 25 -3.9 79 79 Calm 29.87 1011 10 16 0.00 0.00
6:53 pm 18:53 Clear 29 -1.7 22 -5.6 75 75 SW 8 13 29.88 1012 10 16 0.00 0.00
7:53 pm 19:53 Mostly Clear 28 -2.2 21 -6.1 75 75 WSW 5 7 29.88 1012 10 16 0.00 0.00
8:53 pm 20:53 Clear 27 -2.8 21 -6.1 78 78 SW 6 9 29.87 1012 10 16 0.00 0.00
9:53 pm 21:53 Clear 30 -1.1 22 -5.6 72 72 WSW 8 13 29.85 1011 10 16 0.00 0.00
10:53 pm 22:53 Clear 30 -1.1 21 -6.1 69 69 WSW 7 11 29.84 1010 10 16 0.00 0.00
11:53 pm 23:53 Mostly Cloudy 32 0 22 -5.6 66 66 SW 9 15 29.82 1010 10 16 0.00 0.00

Powered by AerisWeather